SCP
0 0 0 0 0 0 0 0 0 0 0 0 0 0 0 0 0 0 0 0 0 0
0 0 0 0 0 0 0 0 0 0 0 0 0 0 0 0 0 0 0 0 0 0
0 0 0 0 0 0 0 0 0 0 0 0 0 0 0 0 0 0 0 0 0 0
0 0 0 0 0 0 0 0 0 0 0 0 0 0 0 0 0 0 0 0 0 0
0 0 0 0 0 0 0 0 0 0 0 0 0 0 0 0 0 0 0 0 0 0
0 0 0 0 0 0 0 0 0 0 0 0 0 0 0 0 0 0 0 0 0 0
0 0 0 0 0 0 0 0 0 0 0 0 0 0 0 0 0 0 0 0 0 0
0 0 0 0 0 0 0 0 0 0 0 0 0 0 0 0 0 0 0 0 0 0
0 0 0 0 0 0 0 0 0 0 0 0 0 0 0 0 0 0 0 0 0 0
0 0 0 0 0 0 0 0 0 0 0 0 0 0 0 0 0 0 0 0 0 0
0 0 0 0 0 0 0 0 0 0 0 0 0 0 0 0 0 0 0 0 0 0
0 0 0 0 0 0 0 0 0 0 0 0 0 0 0 0 0 0 0 0 0 0
0 0 0 0 0 0 0 0 0 0 0 0 0 0 0 0 0 0 0 0 0 0
0 0 0 0 0 0 0 0 0 0 0 0 0 0 0 0 0 0 0 0 0 -0
Wind_Speed_500mb
23 16 17 20 19 21 24 28 31 34 36 39 40 44 46 44 44 40 39 40 42 44
18 19 19 20 21 23 29 32 33 34 35 39 45 48 49 45 44 41 35 36 43 48
22 25 23 24 26 29 32 33 34 39 42 45 47 49 45 41 39 41 44 45 45 47
27 25 25 27 32 36 37 40 44 45 49 51 46 40 39 40 42 43 43 41 44 48
25 28 33 38 41 42 41 41 47 49 52 54 51 49 45 49 48 45 46 46 45 47
31 36 38 40 40 43 47 53 53 56 60 58 59 59 54 56 57 58 53 50 50 52
42 41 45 45 49 53 56 59 64 66 69 66 64 66 65 63 63 58 55 56 57 56
41 47 51 56 59 62 64 68 73 74 76 75 72 70 69 68 66 66 60 58 64 64
46 53 58 63 67 69 70 72 75 78 80 80 83 79 73 69 71 67 68 69 75 71
66 71 75 79 82 85 87 87 87 85 87 90 86 80 80 78 78 79 77 75 71 69
72 75 78 79 80 82 80 81 82 84 86 87 85 85 84 82 81 83 77 74 76 69
81 88 91 96 99 101 105 105 105 102 98 94 92 87 86 81 86 86 85 82 82 69
98 99 102 102 102 100 97 96 93 93 95 100 105 101 98 84 86 84 88 88 85 70
95 94 88 82 78 74 74 74 74 76 75 71 66 71 68 72 77 76 77 77 81 78
Wind_Direction_500mb
206 218 243 256 280 300 294 288 285 289 295 301 300 301 302 304 307 305 297 286 277 275
227 249 264 276 286 281 275 277 279 284 289 294 297 296 297 298 295 290 296 297 288 280
260 265 273 279 273 269 270 274 282 288 295 300 300 300 296 297 296 294 286 286 291 292
262 267 270 273 276 273 273 282 290 297 301 303 302 303 307 310 304 299 297 295 291 287
261 266 271 275 280 275 283 289 295 296 299 299 298 298 298 309 310 307 299 295 294 289
268 273 279 282 276 276 281 283 288 287 291 292 293 295 293 301 304 303 298 295 293 296
258 269 272 273 274 277 281 279 285 286 284 283 284 287 289 293 298 292 286 287 288 293
273 270 274 276 279 280 282 282 283 282 279 278 279 281 280 285 289 288 285 289 289 289
283 281 281 281 281 280 278 277 278 279 278 275 277 277 275 279 281 280 281 293 290 281
290 289 288 288 287 286 284 282 277 271 268 270 272 270 271 275 276 280 280 290 290 277
294 294 292 291 289 287 286 285 283 279 274 269 263 265 268 271 271 270 272 277 288 278
299 297 295 293 292 289 287 284 280 277 275 274 272 269 265 263 264 261 268 274 279 277
298 297 296 295 293 292 291 289 287 284 281 279 275 270 262 256 253 258 266 272 278 276
297 298 298 298 297 297 294 291 286 279 278 276 275 272 271 257 251 254 261 271 272 271
Wind_Speed_850mb
23 16 17 20 19 21 24 28 31 34 36 39 40 44 46 44 44 40 39 40 42 44
18 19 19 20 21 23 29 32 33 34 35 39 45 48 49 45 44 41 35 36 43 48
22 25 23 24 26 29 32 33 34 39 42 45 47 49 45 41 39 41 44 45 45 47
27 25 25 27 32 36 37 40 44 45 49 51 46 40 39 40 42 43 43 41 44 48
25 28 33 38 41 42 41 41 47 49 52 54 51 49 45 49 48 45 46 46 45 47
31 36 38 40 40 43 47 53 53 56 60 58 59 59 54 56 57 58 53 50 50 52
42 41 45 45 49 53 56 59 64 66 69 66 64 66 65 63 63 58 55 56 57 56
41 47 51 56 59 62 64 68 73 74 76 75 72 70 69 68 66 66 60 58 64 64
46 53 58 63 67 69 70 72 75 78 80 80 83 79 73 69 71 67 68 69 75 71
66 71 75 79 82 85 87 87 87 85 87 90 86 80 80 78 78 79 77 75 71 69
72 75 78 79 80 82 80 81 82 84 86 87 85 85 84 82 81 83 77 74 76 69
81 88 91 96 99 101 105 105 105 102 98 94 92 87 86 81 86 86 85 82 82 69
98 99 102 102 102 100 97 96 93 93 95 100 105 101 98 84 86 84 88 88 85 70
95 94 88 82 78 74 74 74 74 76 75 71 66 71 68 72 77 76 77 77 81 78
Wind_Direction_850mb
206 218 243 256 280 300 294 288 285 289 295 301 300 301 302 304 307 305 297 286 277 275
227 249 264 276 286 281 275 277 279 284 289 294 297 296 297 298 295 290 296 297 288 280
260 265 273 279 273 269 270 274 282 288 295 300 300 300 296 297 296 294 286 286 291 292
262 267 270 273 276 273 273 282 290 297 301 303 302 303 307 310 304 299 297 295 291 287
261 266 271 275 280 275 283 289 295 296 299 299 298 298 298 309 310 307 299 295 294 289
268 273 279 282 276 276 281 283 288 287 291 292 293 295 293 301 304 303 298 295 293 296
258 269 272 273 274 277 281 279 285 286 284 283 284 287 289 293 298 292 286 287 288 293
273 270 274 276 279 280 282 282 283 282 279 278 279 281 280 285 289 288 285 289 289 289
283 281 281 281 281 280 278 277 278 279 278 275 277 277 275 279 281 280 281 293 290 281
290 289 288 288 287 286 284 282 277 271 268 270 272 270 271 275 276 280 280 290 290 277
294 294 292 291 289 287 286 285 283 279 274 269 263 265 268 271 271 270 272 277 288 278
299 297 295 293 292 289 287 284 280 277 275 274 272 269 265 263 264 261 268 274 279 277
298 297 296 295 293 292 291 289 287 284 281 279 275 270 262 256 253 258 266 272 278 276
297 298 298 298 297 297 294 291 286 279 278 276 275 272 271 257 251 254 261 271 272 271